Le nostre stazioni meteo in Italia

Pubblicità
Il mio iltempo24.it
Kinlochewe, Gran Bretagna (99092): Temperatura & dewpoint: 17.10.2017 03:00:00 - 23.10.2017 03:00:00 (BST)Kinlochewe, Gran Bretagna (99092): Temperatura -20cm: 17.10.2017 03:00:00 - 23.10.2017 03:00:00 (BST)Kinlochewe, Gran Bretagna (99092): precipitazioni: 17.10.2017 03:00:00 - 23.10.2017 03:00:00 (BST)
Data & Tempo tt [°C] td [°C] tt -20cm [°C] rr [mm]
23.10.2017 03:00:00 7,0 5,3 - -
23.10.2017 02:00:00 5,8 4,6 - 0,0
23.10.2017 01:00:00 4,9 4,1 - 0,0
23.10.2017 00:00:00 5,1 4,1 - 0,0
22.10.2017 23:00:00 6,1 4,9 - 0,0
22.10.2017 22:00:00 7,1 6,1 - 0,0
22.10.2017 21:00:00 8,6 7,5 - 0,0
22.10.2017 20:00:00 8,9 7,7 - -
22.10.2017 19:00:00 9,2 7,9 - 0,0
22.10.2017 18:00:00 9,4 8,4 - 0,4
22.10.2017 17:00:00 9,9 8,9 - 0,0
22.10.2017 16:00:00 10,2 8,9 - 0,2
22.10.2017 15:00:00 10,6 9,5 - 0,0
22.10.2017 14:00:00 11,6 9,9 - 0,2
22.10.2017 13:00:00 11,6 10,2 - -
22.10.2017 12:00:00 11,5 10,9 - 0,4
22.10.2017 11:00:00 11,4 11,3 - 2,0
22.10.2017 10:00:00 10,7 10,7 10,7 3,8
22.10.2017 09:00:00 10,0 10,0 - 1,2
22.10.2017 08:00:00 9,6 9,5 - 0,2
22.10.2017 07:00:00 9,2 9,2 - -
22.10.2017 06:00:00 9,1 9,1 - 0,0
22.10.2017 05:00:00 - - - 0,4
22.10.2017 04:00:00 8,8 8,7 - 0,2
22.10.2017 03:00:00 9,0 8,8 - 0,2
22.10.2017 02:00:00 8,8 8,6 - 0,0
22.10.2017 01:00:00 9,1 8,9 - 0,0
22.10.2017 00:00:00 9,5 9,2 - -
21.10.2017 23:00:00 9,6 9,3 - 0,0
21.10.2017 22:00:00 9,8 9,5 - 0,0
21.10.2017 21:00:00 10,1 9,5 - -
21.10.2017 20:00:00 11,4 8,9 - 0,2
21.10.2017 19:00:00 11,5 8,6 - 0,0
21.10.2017 18:00:00 12,1 8,9 - 0,0
21.10.2017 17:00:00 13,0 8,9 - 0,0
21.10.2017 16:00:00 14,2 9,0 - 0,0
21.10.2017 15:00:00 13,9 9,4 - 0,0
21.10.2017 14:00:00 14,1 8,6 - 0,0
21.10.2017 13:00:00 14,9 8,2 - 0,0
21.10.2017 12:00:00 13,8 7,9 - 0,0
21.10.2017 11:00:00 13,7 8,3 - 0,0
21.10.2017 10:00:00 11,7 8,3 10,7 0,0
21.10.2017 09:00:00 10,9 7,6 - 0,0
21.10.2017 08:00:00 10,3 7,6 - 0,0
21.10.2017 07:00:00 - - - -
21.10.2017 06:00:00 - - - -
21.10.2017 05:00:00 - - - -
21.10.2017 04:00:00 - - - -
21.10.2017 03:00:00 - - - -
21.10.2017 02:00:00 - - - -
21.10.2017 01:00:00 - - - -
21.10.2017 00:00:00 - - - -
20.10.2017 23:00:00 - - - -
20.10.2017 22:00:00 - - - -
20.10.2017 21:00:00 - - - -
20.10.2017 20:00:00 13,5 10,5 - 0,0
20.10.2017 19:00:00 11,8 10,8 - 0,0
20.10.2017 18:00:00 10,8 10,1 - 0,0
20.10.2017 17:00:00 10,9 10,0 - 0,0
20.10.2017 16:00:00 11,8 10,1 - 0,0
20.10.2017 15:00:00 11,9 10,6 - 0,0
20.10.2017 14:00:00 11,9 10,5 - 0,0
20.10.2017 13:00:00 11,7 10,5 - 0,0
20.10.2017 12:00:00 11,0 10,4 - 0,0
20.10.2017 11:00:00 10,9 10,8 - 0,6
20.10.2017 10:00:00 11,0 11,0 10,7 0,0
20.10.2017 09:00:00 10,6 10,5 - 0,0
20.10.2017 08:00:00 10,3 10,2 - 0,0
20.10.2017 07:00:00 10,4 10,3 - 0,2
20.10.2017 06:00:00 10,4 10,2 - 0,4
20.10.2017 05:00:00 10,4 10,2 - 0,2
20.10.2017 04:00:00 10,4 10,2 - 0,0
20.10.2017 03:00:00 10,7 10,3 - 0,4
20.10.2017 02:00:00 10,9 10,4 - 0,8
20.10.2017 01:00:00 11,4 10,7 - 0,4
20.10.2017 00:00:00 12,1 10,5 - 0,4
19.10.2017 23:00:00 12,0 10,6 - 0,6
19.10.2017 22:00:00 12,0 10,5 - 0,4
19.10.2017 21:00:00 13,0 10,1 - 0,2
19.10.2017 20:00:00 14,3 9,6 - 0,0
19.10.2017 19:00:00 14,4 9,6 - 0,0
19.10.2017 18:00:00 15,0 9,5 - 0,0
19.10.2017 17:00:00 14,9 9,6 - 0,0
19.10.2017 16:00:00 15,8 9,4 - 0,0
19.10.2017 15:00:00 15,3 9,5 - 0,0
19.10.2017 14:00:00 15,6 9,2 - 0,0
19.10.2017 13:00:00 15,3 9,2 - 0,0
19.10.2017 12:00:00 13,8 9,1 - 0,0
19.10.2017 11:00:00 13,4 9,0 - 0,0
19.10.2017 10:00:00 12,7 8,7 10,5 0,0
19.10.2017 09:00:00 12,7 8,5 - 0,0
19.10.2017 08:00:00 12,2 8,0 - 0,0
19.10.2017 07:00:00 12,0 7,9 - 0,0
19.10.2017 06:00:00 12,0 7,6 - 0,0
19.10.2017 05:00:00 11,4 7,1 - 0,0
19.10.2017 04:00:00 11,1 6,8 - 0,0
19.10.2017 03:00:00 11,0 5,6 - 0,0
19.10.2017 02:00:00 9,8 5,4 - 0,0
19.10.2017 01:00:00 9,4 5,4 - 0,0
19.10.2017 00:00:00 9,0 5,6 - 0,0
18.10.2017 23:00:00 9,1 5,9 - 0,0
18.10.2017 22:00:00 10,0 5,7 - 0,0
18.10.2017 21:00:00 9,8 6,0 - 0,0
18.10.2017 20:00:00 9,8 6,0 - 0,0
18.10.2017 19:00:00 10,1 6,2 - 0,0
18.10.2017 18:00:00 10,4 5,9 - 0,0
18.10.2017 17:00:00 10,7 5,8 - 0,0
18.10.2017 16:00:00 11,1 5,8 - 0,0
18.10.2017 15:00:00 11,1 5,6 - 0,0
18.10.2017 14:00:00 11,6 5,9 - 0,0
18.10.2017 13:00:00 12,0 5,4 - 0,0
18.10.2017 12:00:00 12,0 5,8 - 0,0
18.10.2017 11:00:00 10,1 5,0 - 0,0
18.10.2017 10:00:00 9,3 4,5 10,7 0,0
18.10.2017 09:00:00 8,5 5,3 - 0,0
18.10.2017 08:00:00 8,0 5,5 - 0,0
18.10.2017 07:00:00 7,8 5,4 - 0,0
18.10.2017 06:00:00 7,0 4,6 - 0,0
18.10.2017 05:00:00 7,1 4,4 - 0,0
18.10.2017 04:00:00 4,9 3,9 - 0,0
18.10.2017 03:00:00 4,6 3,7 - 0,0
18.10.2017 02:00:00 6,2 3,9 - 0,0
18.10.2017 01:00:00 7,7 4,4 - 0,0
18.10.2017 00:00:00 7,5 6,3 - 0,0
17.10.2017 23:00:00 8,1 6,7 - 0,0
17.10.2017 22:00:00 8,7 6,1 - 0,0
17.10.2017 21:00:00 9,2 5,8 - 0,0
17.10.2017 20:00:00 9,4 6,3 - 0,0
17.10.2017 19:00:00 9,0 8,4 - 0,0
17.10.2017 18:00:00 9,6 8,7 - 0,4
17.10.2017 17:00:00 10,9 7,9 - 0,0
17.10.2017 16:00:00 11,2 8,9 - 0,0
17.10.2017 15:00:00 11,3 8,9 - 0,2
17.10.2017 14:00:00 10,9 8,8 - 0,0
17.10.2017 13:00:00 11,4 9,0 - 0,0
17.10.2017 12:00:00 11,3 8,7 - 0,0
17.10.2017 11:00:00 11,1 9,6 - 0,0
17.10.2017 10:00:00 11,5 10,6 10,7 0,2
17.10.2017 09:00:00 11,8 11,2 - 0,4
17.10.2017 08:00:00 12,2 11,1 - 0,4
17.10.2017 07:00:00 11,6 11,3 - 0,4
17.10.2017 06:00:00 11,4 10,9 - 0,4
17.10.2017 05:00:00 11,2 10,7 - 0,2
17.10.2017 04:00:00 11,6 10,4 - 1,0
17.10.2017 03:00:00 11,7 10,4 - 0,6

tt = Temperatura
td = dewpoint
tt -20cm = Temperatura -20cm
rr = precipitazioni

Stazioni seguenti

WeatherPro
AMSI
MeteoEarth